QPF
0.06 0.05 0.04 0.03 0.03 0.03 0.03 0.01 0.01 0.02 0.03 0.03 0.03 0.02 0.01 0.01 0.00 0.01 0.01 0.01 0.01 0.01 0.01 0.01 0.01 0.00 0.00 0.00 0.00 0.00 0.00 0.00 0.00 0.00 0.00 0.00 0.00 0.00 0.00 0.00 0.00 0.00 0.00
0.06 0.05 0.05 0.05 0.04 0.03 0.03 0.03 0.02 0.03 0.02 0.03 0.03 0.02 0.02 0.01 0.01 0.01 0.01 0.01 0.01 0.02 0.01 0.01 0.00 0.00 0.00 0.00 0.00 0.00 0.00 0.00 0.00 0.00 0.00 0.00 0.00 0.00 0.00 0.00 0.00 0.00 0.00
0.05 0.05 0.04 0.04 0.03 0.03 0.03 0.03 0.03 0.03 0.03 0.03 0.02 0.02 0.02 0.01 0.02 0.02 0.02 0.01 0.01 0.02 0.01 0.01 0.00 0.00 0.00 0.01 0.00 0.00 0.00 0.00 0.00 0.00 0.00 0.00 0.00 0.00 0.00 0.00 0.00 0.00 0.00
0.03 0.03 0.03 0.03 0.03 0.03 0.04 0.04 0.04 0.03 0.03 0.04 0.03 0.02 0.03 0.03 0.03 0.03 0.03 0.02 0.02 0.01 0.01 0.01 0.01 0.00 0.00 0.00 0.00 0.00 0.00 0.00 0.00 0.00 0.00 0.00 0.00 0.00 0.00 0.00 0.00 0.00 0.00
0.02 0.02 0.03 0.04 0.05 0.04 0.03 0.03 0.04 0.04 0.03 0.04 0.04 0.03 0.03 0.04 0.03 0.02 0.02 0.02 0.01 0.01 0.01 0.02 0.01 0.01 0.00 0.00 0.00 0.00 0.00 0.00 0.01 0.00 0.00 0.00 0.00 0.00 0.00 0.00 0.00 0.00 0.00
0.04 0.03 0.02 0.03 0.04 0.03 0.03 0.02 0.03 0.03 0.02 0.03 0.04 0.04 0.03 0.02 0.02 0.02 0.01 0.01 0.01 0.01 0.01 0.02 0.01 0.01 0.01 0.00 0.00 0.00 0.00 0.01 0.01 0.01 0.00 0.00 0.00 0.00 0.00 0.00 0.00 0.00 0.00
0.05 0.04 0.03 0.04 0.03 0.03 0.03 0.03 0.03 0.03 0.03 0.04 0.03 0.04 0.04 0.03 0.02 0.02 0.02 0.01 0.01 0.01 0.01 0.02 0.02 0.01 0.01 0.00 0.00 0.00 0.00 0.00 0.00 0.00 0.00 0.00 0.00 0.00 0.00 0.00 0.00 0.00 0.00
0.02 0.02 0.02 0.03 0.03 0.04 0.04 0.04 0.03 0.04 0.05 0.03 0.03 0.03 0.04 0.03 0.03 0.03 0.02 0.01 0.00 0.00 0.01 0.01 0.01 0.01 0.01 0.00 0.00 0.00 0.00 0.00 0.00 0.01 0.01 0.01 0.01 0.00 0.00 0.00 0.00 0.00 0.00
0.02 0.02 0.03 0.03 0.03 0.04 0.04 0.03 0.03 0.04 0.05 0.04 0.03 0.03 0.04 0.04 0.04 0.03 0.02 0.01 0.01 0.02 0.03 0.03 0.03 0.02 0.01 0.01 0.00 0.00 0.00 0.00 0.01 0.01 0.02 0.01 0.01 0.00 0.00 0.00 0.00 0.00 0.00
0.02 0.02 0.03 0.04 0.07 0.08 0.06 0.05 0.04 0.04 0.05 0.04 0.03 0.03 0.03 0.03 0.04 0.04 0.03 0.03 0.04 0.04 0.04 0.04 0.04 0.03 0.02 0.02 0.02 0.01 0.01 0.01 0.02 0.01 0.01 0.01 0.01 0.01 0.01 0.01 0.01 0.01 0.01
0.02 0.02 0.03 0.04 0.06 0.09 0.08 0.06 0.04 0.04 0.04 0.03 0.03 0.02 0.02 0.02 0.03 0.04 0.04 0.03 0.04 0.04 0.04 0.03 0.02 0.01 0.01 0.02 0.02 0.02 0.01 0.01 0.01 0.01 0.01 0.01 0.01 0.01 0.01 0.01 0.01 0.02 0.02
0.03 0.02 0.04 0.06 0.07 0.09 0.09 0.07 0.05 0.04 0.03 0.03 0.02 0.01 0.01 0.02 0.03 0.03 0.03 0.03 0.03 0.02 0.01 0.01 0.01 0.01 0.01 0.01 0.01 0.00 0.00 0.00 0.00 0.00 0.00 0.00 0.00 0.00 0.01 0.01 0.02 0.03 0.05
0.04 0.03 0.03 0.03 0.04 0.05 0.07 0.07 0.05 0.04 0.04 0.04 0.04 0.03 0.04 0.05 0.04 0.03 0.03 0.03 0.03 0.02 0.02 0.01 0.01 0.00 0.00 0.00 0.00 0.00 0.00 0.00 0.00 0.00 0.00 0.00 0.00 0.01 0.01 0.01 0.02 0.02 0.02
0.04 0.05 0.05 0.05 0.04 0.05 0.05 0.06 0.07 0.06 0.06 0.06 0.06 0.07 0.06 0.05 0.03 0.02 0.03 0.03 0.03 0.03 0.02 0.01 0.01 0.00 0.00 0.00 0.00 0.00 0.00 0.00 0.00 0.00 0.00 0.01 0.01 0.00 0.00 0.00 0.01 0.01 0.01
0.05 0.06 0.06 0.06 0.06 0.07 0.07 0.07 0.08 0.07 0.08 0.09 0.09 0.08 0.05 0.03 0.04 0.04 0.04 0.03 0.03 0.02 0.02 0.01 0.01 0.01 0.01 0.01 0.01 0.01 0.01 0.00 0.01 0.00 0.01 0.01 0.00 0.00 0.01 0.01 0.01 0.01 0.02
0.07 0.08 0.09 0.10 0.12 0.12 0.11 0.09 0.09 0.09 0.09 0.09 0.08 0.07 0.05 0.06 0.08 0.08 0.06 0.05 0.04 0.03 0.02 0.02 0.02 0.01 0.01 0.01 0.01 0.01 0.01 0.01 0.01 0.01 0.01 0.01 0.01 0.01 0.01 0.01 0.02 0.02 0.02
0.12 0.13 0.14 0.15 0.16 0.17 0.17 0.15 0.13 0.10 0.10 0.09 0.09 0.09 0.09 0.11 0.11 0.08 0.05 0.05 0.05 0.05 0.04 0.03 0.03 0.02 0.02 0.02 0.01 0.01 0.01 0.02 0.02 0.02 0.02 0.02 0.02 0.02 0.02 0.02 0.02 0.02 0.02
0.15 0.15 0.15 0.15 0.15 0.18 0.18 0.18 0.16 0.12 0.10 0.10 0.11 0.11 0.10 0.09 0.08 0.08 0.07 0.06 0.06 0.06 0.05 0.04 0.04 0.03 0.03 0.02 0.01 0.01 0.01 0.01 0.01 0.01 0.02 0.02 0.02 0.02 0.02 0.02 0.02 0.03 0.03
0.13 0.12 0.13 0.15 0.17 0.19 0.19 0.18 0.17 0.16 0.14 0.14 0.13 0.12 0.10 0.09 0.07 0.05 0.05 0.04 0.05 0.04 0.03 0.03 0.02 0.02 0.02 0.02 0.01 0.01 0.01 0.01 0.01 0.01 0.01 0.01 0.01 0.02 0.02 0.02 0.01 0.02 0.03
0.13 0.15 0.16 0.17 0.19 0.22 0.24 0.21 0.19 0.19 0.17 0.17 0.17 0.15 0.11 0.08 0.06 0.05 0.05 0.04 0.03 0.02 0.02 0.02 0.01 0.02 0.01 0.01 0.01 0.01 0.01 0.01 0.01 0.01 0.01 0.01 0.01 0.01 0.01 0.01 0.02 0.02 0.03
0.06 0.08 0.10 0.11 0.12 0.15 0.18 0.20 0.22 0.23 0.20 0.16 0.15 0.13 0.11 0.08 0.07 0.06 0.06 0.05 0.04 0.03 0.02 0.02 0.01 0.01 0.02 0.02 0.01 0.01 0.01 0.01 0.01 0.01 0.01 0.01 0.01 0.01 0.01 0.02 0.02 0.02 0.02
0.06 0.07 0.08 0.10 0.11 0.14 0.16 0.16 0.18 0.21 0.20 0.15 0.13 0.13 0.12 0.10 0.10 0.09 0.07 0.06 0.04 0.03 0.02 0.02 0.01 0.01 0.01 0.01 0.01 0.01 0.01 0.01 0.01 0.02 0.02 0.02 0.02 0.02 0.02 0.02 0.03 0.03 0.03
0.05 0.07 0.08 0.09 0.10 0.12 0.15 0.16 0.16 0.17 0.18 0.19 0.21 0.21 0.19 0.17 0.14 0.10 0.06 0.04 0.03 0.02 0.02 0.01 0.01 0.01 0.01 0.01 0.01 0.01 0.01 0.01 0.02 0.02 0.03 0.03 0.03 0.04 0.04 0.04 0.03 0.03 0.02
0.07 0.09 0.11 0.10 0.11 0.12 0.15 0.18 0.20 0.19 0.18 0.19 0.19 0.17 0.14 0.12 0.09 0.07 0.05 0.04 0.03 0.03 0.02 0.02 0.02 0.02 0.01 0.01 0.01 0.02 0.02 0.02 0.02 0.02 0.03 0.04 0.04 0.04 0.03 0.03 0.02 0.02 0.02
0.09 0.12 0.14 0.13 0.12 0.11 0.12 0.12 0.15 0.18 0.17 0.16 0.15 0.14 0.12 0.09 0.07 0.06 0.06 0.06 0.06 0.06 0.04 0.03 0.02 0.02 0.02 0.02 0.02 0.02 0.02 0.03 0.03 0.02 0.03 0.03 0.03 0.02 0.02 0.02 0.02 0.02 0.02
0.08 0.10 0.13 0.13 0.11 0.11 0.10 0.10 0.09 0.10 0.10 0.11 0.12 0.12 0.10 0.08 0.06 0.04 0.03 0.03 0.02 0.02 0.02 0.02 0.02 0.02 0.02 0.02 0.03 0.03 0.02 0.02 0.03 0.03 0.03 0.02 0.02 0.02 0.02 0.02 0.02 0.01 0.02
MSLP
1010.94 1011.45 1011.99 1012.50 1012.96 1013.35 1013.67 1013.95 1014.21 1014.49 1014.81 1015.16 1015.55 1015.95 1016.33 1016.67 1016.94 1017.14 1017.28 1017.37 1017.46 1017.55 1017.66 1017.81 1017.99 1018.19 1018.39 1018.58 1018.74 1018.87 1018.98 1019.04 1019.08 1019.08 1019.04 1018.96 1018.83 1018.65 1018.42 1018.15 1017.87 1017.60 1017.35
1010.71 1011.18 1011.66 1012.13 1012.55 1012.92 1013.24 1013.53 1013.81 1014.11 1014.43 1014.80 1015.21 1015.62 1016.02 1016.38 1016.68 1016.92 1017.10 1017.23 1017.34 1017.43 1017.53 1017.65 1017.79 1017.94 1018.11 1018.28 1018.45 1018.61 1018.76 1018.90 1019.01 1019.09 1019.13 1019.09 1018.99 1018.81 1018.55 1018.24 1017.89 1017.53 1017.21
1010.45 1010.88 1011.33 1011.76 1012.15 1012.51 1012.82 1013.12 1013.41 1013.73 1014.07 1014.46 1014.87 1015.30 1015.71 1016.09 1016.43 1016.70 1016.91 1017.07 1017.19 1017.29 1017.38 1017.47 1017.57 1017.68 1017.81 1017.96 1018.13 1018.31 1018.50 1018.69 1018.88 1019.03 1019.13 1019.15 1019.09 1018.92 1018.66 1018.33 1017.94 1017.53 1017.14
1010.11 1010.52 1010.93 1011.33 1011.70 1012.05 1012.37 1012.67 1012.99 1013.32 1013.69 1014.08 1014.51 1014.94 1015.36 1015.75 1016.11 1016.40 1016.64 1016.83 1016.97 1017.08 1017.17 1017.24 1017.31 1017.40 1017.50 1017.62 1017.78 1017.97 1018.18 1018.42 1018.65 1018.86 1019.01 1019.09 1019.07 1018.94 1018.70 1018.37 1017.98 1017.55 1017.12
1009.64 1010.03 1010.42 1010.80 1011.16 1011.50 1011.83 1012.15 1012.48 1012.83 1013.21 1013.62 1014.04 1014.48 1014.90 1015.30 1015.66 1015.97 1016.23 1016.44 1016.61 1016.74 1016.84 1016.92 1016.99 1017.06 1017.14 1017.25 1017.39 1017.58 1017.80 1018.05 1018.31 1018.55 1018.75 1018.87 1018.89 1018.80 1018.60 1018.30 1017.93 1017.51 1017.08
1009.01 1009.39 1009.76 1010.13 1010.49 1010.83 1011.16 1011.50 1011.85 1012.22 1012.61 1013.02 1013.44 1013.86 1014.28 1014.67 1015.03 1015.35 1015.64 1015.88 1016.08 1016.24 1016.37 1016.48 1016.56 1016.64 1016.73 1016.83 1016.96 1017.14 1017.35 1017.59 1017.85 1018.10 1018.32 1018.46 1018.52 1018.47 1018.32 1018.07 1017.75 1017.36 1016.96
1008.26 1008.62 1008.99 1009.35 1009.70 1010.04 1010.38 1010.73 1011.09 1011.47 1011.86 1012.27 1012.68 1013.08 1013.48 1013.86 1014.22 1014.55 1014.85 1015.13 1015.37 1015.58 1015.76 1015.92 1016.04 1016.15 1016.26 1016.37 1016.50 1016.65 1016.84 1017.06 1017.30 1017.53 1017.73 1017.89 1017.96 1017.95 1017.85 1017.66 1017.39 1017.07 1016.71
1007.45 1007.80 1008.14 1008.49 1008.83 1009.17 1009.52 1009.87 1010.24 1010.62 1011.01 1011.40 1011.79 1012.18 1012.55 1012.91 1013.26 1013.60 1013.92 1014.23 1014.52 1014.80 1015.04 1015.26 1015.45 1015.61 1015.75 1015.87 1016.00 1016.14 1016.30 1016.47 1016.67 1016.86 1017.03 1017.17 1017.25 1017.27 1017.21 1017.07 1016.87 1016.61 1016.30
1006.67 1006.98 1007.31 1007.63 1007.96 1008.29 1008.63 1008.99 1009.35 1009.73 1010.11 1010.49 1010.86 1011.22 1011.57 1011.91 1012.25 1012.59 1012.93 1013.28 1013.62 1013.96 1014.28 1014.57 1014.83 1015.04 1015.22 1015.37 1015.50 1015.62 1015.74 1015.87 1016.00 1016.14 1016.27 1016.38 1016.45 1016.48 1016.44 1016.35 1016.20 1016.01 1015.76
1005.97 1006.25 1006.53 1006.82 1007.13 1007.44 1007.78 1008.13 1008.49 1008.87 1009.24 1009.60 1009.96 1010.30 1010.63 1010.95 1011.28 1011.62 1011.98 1012.35 1012.74 1013.14 1013.52 1013.88 1014.20 1014.47 1014.70 1014.87 1014.99 1015.09 1015.18 1015.26 1015.34 1015.42 1015.50 1015.57 1015.63 1015.65 1015.63 1015.57 1015.47 1015.32 1015.13
1005.39 1005.60 1005.84 1006.09 1006.36 1006.65 1006.97 1007.31 1007.67 1008.04 1008.41 1008.77 1009.12 1009.44 1009.76 1010.07 1010.39 1010.74 1011.11 1011.51 1011.94 1012.38 1012.81 1013.23 1013.60 1013.92 1014.17 1014.36 1014.48 1014.57 1014.62 1014.66 1014.69 1014.72 1014.76 1014.80 1014.83 1014.84 1014.84 1014.80 1014.73 1014.62 1014.46
1004.90 1005.04 1005.20 1005.39 1005.61 1005.87 1006.17 1006.51 1006.86 1007.24 1007.61 1007.97 1008.31 1008.64 1008.95 1009.27 1009.59 1009.94 1010.32 1010.75 1011.20 1011.67 1012.15 1012.60 1013.00 1013.35 1013.62 1013.82 1013.95 1014.02 1014.05 1014.05 1014.05 1014.05 1014.06 1014.08 1014.10 1014.11 1014.12 1014.10 1014.05 1013.97 1013.84
1004.45 1004.48 1004.55 1004.66 1004.82 1005.03 1005.31 1005.63 1005.98 1006.36 1006.74 1007.12 1007.47 1007.82 1008.14 1008.47 1008.80 1009.16 1009.56 1010.00 1010.48 1010.97 1011.47 1011.94 1012.37 1012.73 1013.01 1013.22 1013.35 1013.41 1013.44 1013.43 1013.42 1013.41 1013.41 1013.43 1013.45 1013.48 1013.50 1013.50 1013.48 1013.41 1013.30
1003.96 1003.86 1003.80 1003.81 1003.89 1004.05 1004.28 1004.58 1004.93 1005.31 1005.71 1006.10 1006.48 1006.85 1007.20 1007.55 1007.92 1008.31 1008.73 1009.19 1009.68 1010.20 1010.71 1011.19 1011.63 1012.01 1012.31 1012.52 1012.66 1012.74 1012.77 1012.78 1012.78 1012.78 1012.81 1012.85 1012.90 1012.96 1013.01 1013.03 1013.03 1012.98 1012.89
1003.38 1003.11 1002.91 1002.79 1002.77 1002.85 1003.03 1003.29 1003.63 1004.01 1004.42 1004.84 1005.25 1005.65 1006.04 1006.43 1006.83 1007.26 1007.72 1008.22 1008.74 1009.28 1009.81 1010.32 1010.78 1011.17 1011.49 1011.72 1011.88 1011.99 1012.05 1012.10 1012.14 1012.19 1012.26 1012.35 1012.45 1012.55 1012.64 1012.70 1012.72 1012.70 1012.62
1002.70 1002.24 1001.87 1001.61 1001.47 1001.46 1001.57 1001.79 1002.09 1002.46 1002.88 1003.31 1003.74 1004.18 1004.61 1005.05 1005.50 1005.98 1006.50 1007.04 1007.61 1008.19 1008.77 1009.31 1009.81 1010.23 1010.59 1010.86 1011.07 1011.22 1011.33 1011.43 1011.54 1011.65 1011.79 1011.94 1012.10 1012.26 1012.39 1012.50 1012.55 1012.55 1012.47
1001.98 1001.34 1000.79 1000.38 1000.11 999.99 1000.02 1000.18 1000.44 1000.78 1001.18 1001.62 1002.07 1002.53 1003.00 1003.49 1004.00 1004.54 1005.11 1005.72 1006.36 1007.00 1007.64 1008.24 1008.79 1009.28 1009.69 1010.02 1010.29 1010.51 1010.69 1010.86 1011.03 1011.22 1011.43 1011.64 1011.87 1012.08 1012.27 1012.40 1012.48 1012.50 1012.43
1001.35 1000.53 999.83 999.27 998.88 998.66 998.59 998.68 998.88 999.18 999.55 999.97 1000.42 1000.90 1001.40 1001.92 1002.48 1003.09 1003.73 1004.41 1005.12 1005.85 1006.56 1007.24 1007.87 1008.43 1008.92 1009.33 1009.67 1009.96 1010.21 1010.46 1010.70 1010.95 1011.22 1011.49 1011.76 1012.02 1012.24 1012.40 1012.50 1012.51 1012.45
1000.96 1000.00 999.17 998.49 997.99 997.68 997.53 997.54 997.68 997.92 998.25 998.64 999.07 999.54 1000.05 1000.60 1001.19 1001.85 1002.55 1003.31 1004.09 1004.90 1005.70 1006.46 1007.18 1007.82 1008.39 1008.88 1009.30 1009.66 1009.98 1010.28 1010.58 1010.88 1011.18 1011.49 1011.78 1012.06 1012.28 1012.45 1012.55 1012.56 1012.47
1000.96 999.91 998.99 998.23 997.66 997.27 997.06 997.00 997.08 997.26 997.53 997.87 998.27 998.71 999.21 999.76 1000.38 1001.06 1001.81 1002.61 1003.46 1004.34 1005.21 1006.05 1006.84 1007.57 1008.21 1008.77 1009.26 1009.67 1010.04 1010.38 1010.70 1011.01 1011.32 1011.62 1011.91 1012.17 1012.38 1012.52 1012.59 1012.58 1012.47
1001.45 1000.36 999.41 998.62 998.01 997.58 997.32 997.21 997.24 997.37 997.59 997.87 998.22 998.62 999.09 999.62 1000.22 1000.90 1001.66 1002.49 1003.37 1004.28 1005.20 1006.10 1006.95 1007.72 1008.42 1009.03 1009.54 1009.99 1010.38 1010.72 1011.03 1011.32 1011.60 1011.86 1012.10 1012.30 1012.46 1012.56 1012.59 1012.53 1012.37
1002.45 1001.38 1000.45 999.67 999.06 998.62 998.35 998.21 998.20 998.29 998.46 998.69 998.99 999.34 999.75 1000.24 1000.80 1001.45 1002.18 1002.99 1003.87 1004.78 1005.70 1006.61 1007.47 1008.26 1008.97 1009.59 1010.11 1010.55 1010.92 1011.23 1011.50 1011.73 1011.94 1012.12 1012.29 1012.41 1012.49 1012.52 1012.48 1012.36 1012.16
1003.90 1002.90 1002.02 1001.29 1000.72 1000.31 1000.04 999.90 999.88 999.94 1000.07 1000.26 1000.50 1000.80 1001.15 1001.57 1002.07 1002.66 1003.33 1004.08 1004.90 1005.76 1006.64 1007.51 1008.33 1009.10 1009.78 1010.37 1010.85 1011.25 1011.57 1011.81 1012.00 1012.15 1012.26 1012.35 1012.41 1012.43 1012.42 1012.35 1012.24 1012.06 1011.81
1005.66 1004.75 1003.95 1003.29 1002.77 1002.40 1002.17 1002.05 1002.03 1002.08 1002.19 1002.35 1002.55 1002.79 1003.08 1003.43 1003.85 1004.34 1004.92 1005.58 1006.30 1007.07 1007.86 1008.64 1009.39 1010.08 1010.69 1011.21 1011.63 1011.95 1012.19 1012.35 1012.45 1012.49 1012.49 1012.47 1012.41 1012.32 1012.20 1012.05 1011.86 1011.62 1011.33
1007.57 1006.75 1006.04 1005.45 1005.00 1004.68 1004.48 1004.39 1004.38 1004.44 1004.54 1004.68 1004.84 1005.03 1005.26 1005.54 1005.87 1006.26 1006.73 1007.27 1007.86 1008.50 1009.17 1009.83 1010.47 1011.05 1011.57 1011.99 1012.32 1012.56 1012.70 1012.76 1012.76 1012.69 1012.59 1012.44 1012.28 1012.08 1011.87 1011.63 1011.37 1011.08 1010.76
1009.49 1008.75 1008.11 1007.59 1007.19 1006.92 1006.76 1006.69 1006.70 1006.76 1006.86 1006.99 1007.12 1007.28 1007.45 1007.65 1007.89 1008.19 1008.53 1008.94 1009.40 1009.90 1010.42 1010.95 1011.45 1011.91 1012.31 1012.63 1012.86 1012.99 1013.04 1013.01 1012.91 1012.75 1012.54 1012.29 1012.03 1011.74 1011.45 1011.14 1010.82 1010.49 1010.15
Thickness
5738 5736 5734 5732 5731 5730 5728 5727 5727 5726 5725 5724 5722 5721 5720 5719 5718 5717 5715 5715 5714 5713 5712 5711 5710 5710 5709 5708 5707 5705 5703 5700 5694 5694 5697 5699 5698 5698 5697 5696 5695 5694 5694
5737 5735 5733 5731 5730 5728 5727 5727 5727 5726 5725 5723 5722 5720 5719 5718 5716 5715 5714 5713 5712 5710 5710 5709 5708 5708 5706 5705 5704 5702 5701 5700 5695 5691 5692 5694 5695 5695 5694 5693 5693 5692 5692
5736 5734 5731 5730 5728 5727 5727 5726 5725 5725 5723 5722 5720 5719 5717 5716 5715 5714 5713 5712 5710 5709 5708 5707 5706 5705 5703 5702 5701 5699 5698 5698 5695 5691 5689 5690 5690 5691 5690 5690 5690 5690 5690
5735 5733 5730 5729 5728 5727 5726 5725 5724 5723 5721 5720 5719 5718 5716 5715 5714 5712 5711 5710 5708 5708 5707 5706 5704 5703 5701 5699 5698 5697 5695 5693 5690 5688 5685 5685 5685 5686 5685 5683 5683 5684 5684
5735 5732 5731 5729 5728 5726 5725 5724 5722 5721 5720 5719 5717 5716 5715 5713 5713 5711 5709 5708 5706 5705 5704 5704 5703 5702 5701 5699 5698 5694 5692 5689 5686 5683 5681 5680 5680 5680 5679 5679 5677 5677 5679
5735 5732 5731 5728 5726 5725 5723 5722 5720 5719 5718 5716 5715 5713 5712 5713 5712 5710 5708 5706 5704 5702 5701 5701 5701 5700 5699 5698 5696 5694 5691 5687 5683 5681 5678 5676 5676 5677 5676 5675 5672 5670 5669
5735 5733 5731 5729 5726 5724 5723 5721 5719 5717 5715 5714 5713 5712 5710 5711 5710 5709 5707 5705 5702 5700 5699 5697 5697 5698 5696 5694 5692 5691 5690 5688 5686 5682 5678 5676 5675 5675 5673 5671 5668 5666 5665
5735 5733 5731 5728 5726 5724 5721 5719 5717 5716 5714 5712 5711 5710 5709 5709 5708 5706 5705 5702 5700 5699 5698 5696 5694 5693 5693 5690 5688 5686 5685 5684 5683 5681 5679 5677 5676 5674 5671 5669 5666 5664 5663
5734 5732 5731 5729 5726 5723 5720 5718 5717 5715 5713 5711 5710 5708 5707 5707 5706 5704 5702 5698 5697 5696 5695 5694 5693 5690 5691 5688 5684 5681 5680 5680 5681 5679 5678 5676 5673 5670 5667 5662 5659 5655 5654
5734 5733 5732 5729 5726 5723 5721 5718 5717 5715 5713 5711 5709 5708 5707 5705 5704 5702 5700 5696 5693 5692 5691 5691 5691 5689 5687 5685 5681 5678 5675 5675 5675 5674 5672 5670 5668 5666 5663 5658 5655 5649 5647
5735 5733 5730 5729 5727 5724 5721 5719 5716 5714 5711 5709 5707 5707 5705 5704 5703 5700 5698 5694 5692 5689 5687 5686 5686 5686 5684 5681 5679 5676 5674 5672 5670 5667 5665 5663 5661 5659 5657 5655 5651 5647 5643
5733 5730 5728 5727 5726 5724 5720 5717 5715 5712 5708 5706 5704 5703 5703 5703 5701 5698 5695 5693 5691 5687 5685 5684 5683 5682 5679 5677 5674 5673 5670 5667 5663 5660 5657 5655 5654 5652 5651 5650 5647 5644 5641
5729 5727 5726 5724 5723 5722 5719 5715 5712 5709 5706 5704 5702 5700 5700 5699 5698 5697 5694 5691 5688 5685 5684 5682 5679 5677 5674 5672 5670 5667 5664 5659 5656 5652 5650 5649 5649 5647 5645 5642 5640 5638 5635
5726 5723 5722 5720 5719 5718 5716 5714 5711 5708 5705 5703 5700 5699 5697 5696 5695 5693 5690 5687 5683 5680 5678 5676 5673 5671 5668 5666 5663 5660 5657 5653 5650 5647 5645 5644 5642 5639 5635 5633 5630 5627 5624
5722 5720 5719 5717 5715 5713 5711 5709 5708 5707 5707 5704 5702 5699 5696 5694 5694 5692 5688 5684 5680 5677 5672 5667 5664 5661 5659 5657 5655 5652 5649 5645 5642 5640 5637 5634 5632 5628 5626 5623 5619 5616 5612
5715 5714 5712 5711 5709 5708 5705 5702 5702 5702 5701 5701 5699 5697 5695 5693 5691 5687 5684 5680 5675 5671 5665 5661 5658 5655 5653 5650 5647 5644 5642 5638 5635 5632 5628 5625 5622 5619 5616 5613 5609 5605 5601
5709 5707 5706 5705 5703 5701 5699 5697 5693 5692 5692 5691 5690 5689 5688 5686 5683 5680 5676 5672 5667 5662 5657 5655 5652 5649 5646 5643 5640 5637 5634 5631 5627 5623 5618 5615 5611 5608 5605 5602 5598 5594 5591
5701 5700 5700 5698 5697 5695 5693 5692 5689 5686 5683 5681 5680 5679 5677 5676 5673 5670 5666 5661 5655 5651 5649 5647 5644 5640 5637 5634 5631 5628 5624 5621 5616 5612 5608 5605 5601 5597 5593 5589 5586 5583 5580
5693 5692 5692 5691 5690 5688 5687 5685 5682 5679 5676 5672 5670 5668 5666 5663 5661 5657 5654 5652 5648 5643 5640 5637 5634 5631 5627 5624 5620 5616 5613 5609 5605 5601 5598 5594 5590 5585 5582 5579 5575 5572 5569
5683 5684 5683 5682 5680 5679 5677 5675 5673 5670 5666 5663 5661 5658 5655 5652 5648 5645 5641 5640 5637 5634 5630 5626 5623 5620 5616 5612 5608 5604 5600 5596 5592 5589 5586 5582 5578 5574 5571 5568 5565 5562 5559
5673 5673 5674 5672 5670 5669 5667 5665 5663 5660 5657 5653 5651 5649 5646 5643 5640 5636 5631 5627 5624 5621 5618 5614 5611 5607 5603 5600 5595 5591 5587 5583 5580 5576 5572 5569 5566 5562 5559 5557 5554 5551 5548
5661 5661 5661 5659 5658 5657 5656 5654 5652 5649 5646 5642 5639 5637 5633 5631 5628 5625 5621 5617 5614 5610 5607 5603 5598 5595 5591 5587 5583 5578 5574 5570 5566 5563 5559 5556 5553 5550 5547 5545 5542 5540 5537
5648 5648 5647 5646 5645 5643 5642 5640 5637 5635 5632 5629 5626 5623 5619 5616 5614 5612 5608 5605 5601 5598 5594 5590 5586 5582 5578 5574 5570 5566 5561 5557 5554 5550 5547 5544 5541 5538 5536 5534 5532 5529 5527
5634 5633 5631 5630 5629 5628 5627 5625 5622 5620 5617 5614 5611 5608 5605 5602 5599 5597 5593 5590 5587 5583 5579 5576 5572 5568 5565 5560 5556 5553 5549 5545 5541 5538 5535 5531 5529 5527 5525 5523 5522 5520 5518
5619 5617 5615 5613 5612 5611 5610 5608 5606 5604 5601 5598 5595 5592 5589 5586 5583 5580 5577 5575 5571 5568 5564 5561 5557 5554 5550 5547 5543 5539 5535 5532 5528 5525 5522 5519 5517 5516 5514 5512 5511 5510 5509
5603 5601 5599 5598 5596 5595 5594 5592 5589 5587 5585 5582 5579 5577 5574 5570 5567 5564 5561 5558 5555 5552 5548 5545 5542 5538 5535 5531 5528 5524 5521 5519 5516 5513 5510 5508 5506 5505 5504 5502 5502 5501 5500